STARLINK-5121 (53993 NORAD) Tracking and Keplerian Element Data

This shows tracking and keplerian element data for the satellite.

Feedback or suggestion? Click here.




ElementValue
Catalog53993
NameSTARLINK-5121
Epoch Orbit130
Epoch Day324.91667824
Epoch Year2022
RAAN224.1831
Inclination53.2174
Eccentricity0.000189
Argument of Perigee31.4236
Mean Anonmoly156.7662
Mean Motion15.70459495
Decay Rate-0.00895604
L11 53993U 22125AF 22324.91667824 -.00895604 00000+0 -79687-2 0 9999
L22 53993 53.2174 224.1831 0001890 31.4236 156.7662 15.70459495 1307



Live tracking and technical data element details for STARLINK-5121 (NORAD 53993). STARLINK-5121 can be tracked NOW for your location showing map with azimuth and elevation plus other details from your city location.







IsCatalogInMostPopularTable: catalog: 53993, numindb: 3
Update: records affected: 1



GetName: 53993 STARLINK-5121

Hit Count: updated at: Mon, 28 Nov 2022 22:16:45 GMT